Location: *
(55.6049°S, 142.1985°W)
Time: 00:24:13
(UTC+00:00)

Cosmos 1833 Rocket - Pass Details

Date: 12 May 2021
Orbit: 831 x 841 km, 71.0° (Epoch: 23 June)

Event Time Altitude Azimuth Distance (km) Brightness Sun altitude
Exits shadow 16:20:52 - 215° (SW) 3,071 5.1 -7.5°
Reaches altitude 10° 16:22:36 10° 208° (SSW) 2,482 4.7 -7.3°
Maximum altitude 16:27:45 34° 143° (SE) 1,372 4.0 -6.6°
Drops below altitude 10° 16:32:52 10° 79° (ENE) 2,465 6.8 -5.9°
Sets 16:35:33 0° 69° (ENE) 3,394 8.7 -5.6°
